User: anonymous   Login
Location: Oshawa
(43.9000°N, 78.8670°W)
Time: 13:57:41
(UTC-05:00)
Language:

Iridium 98 - Orbit

View from above orbital plane
View from above orbital plane
View from above satellite
View from above satellite

Ground track
Ground track

The orbit data is extracted from the following two-line orbital elements,

1 27451U 02031B   18052.17742244  .00000040  00000-0  72998-5 0  9996
2 27451  86.3929 278.0719 0001549  94.2707 265.8665 14.34222878826993
Epoch (UTC): 21 February 2018 04:15:29
Eccentricity: 0.0001549
inclination: 86.3929°
perigee height: 776 km
apogee height: 779 km
right ascension of ascending node: 278.0719°
argument of perigee: 94.2707°
revolutions per day: 14.34222878
mean anomaly at epoch: 265.8665°
orbit number at epoch: 82699

The dashed part of the orbit path shows where the satellite is in the earth's shadow,  

DLR